Location: Namasale
(1.5000°N, 32.6167°E)
Time: 18:27:27
(UTC+00:00)

Courier 1B - Pass Details

Date: 21 April 2021
Orbit: 962 x 1209 km, 28.3° (Epoch: 18 May)

Event Time Altitude Azimuth Distance (km) Brightness Sun altitude
Rises 18:31:26 0° 287° (WNW) 3,736 11.5 -39.3°
Reaches altitude 10° 18:34:10 10° 282° (WNW) 2,819 10.6 -39.9°
Enters shadow 18:38:04 33° 260° (W) 1,696 9.0 -40.9°
Maximum altitude 18:40:45 47° 209° (SSW) 1,384 - -41.5°
Drops below altitude 10° 18:47:47 10° 137° (SE) 3,001 - -43.2°
Sets 18:50:47 0° 131° (SE) 3,998 - -43.9°
